Other Surface Observations
Issued by NWS Jacksonville, FL

Current Version | Previous Version | Text Only | Print | Product List | Glossary On
Versions: 1 2 3 4 5 6 7 8 9 10 11 12 13 14 15 16 17 18 19 20 21 22 23 24 25 26 27 28 29 30 31 32 33 34 35 36 37 38 39 40 41 42 43 44 45 46 47 48 49 50
000
SXUS52 KJAX 250711
OSOJAX
OTHER SURFACE OBSERVATIONS
NATIONAL WEATHER SERVICE JACKSONVILLE FL
300 AM EDT SUN SEP 25 2022

FLZ020>025-030>033-035>038-040-250800-
...FLORIDA...

CITY           SKY/WX    TMP DP  RH WIND       PRES   REMARKS
CECIL FIELD    MOCLDY    61  63 100 CALM      29.97F
FERNANDINA BCH FAIR      68  63  83 CALM      29.97F
LAKE CITY      FAIR      63  63 100 CALM      29.98S
KEYSTONE HGTS  CLOUDY    66  66 100 CALM      29.97S
$$

GAZ132>136-149>154-162>166-250800-
...GEORGIA...

CITY           SKY/WX    TMP DP  RH WIND       PRES   REMARKS
JESUP          FAIR      63  61  94 CALM      30.02S
HOMERVILLE     NOT AVBL
SWAINSBORO     FAIR      63  63 100 CALM      30.02S
CORDELE        NOT AVBL
EASTMAN        FAIR      52  50  93 CALM      30.01F
$$

PLEASE NOTE:  THESE OBSERVATIONS ARE NOT QUALITY CONTROLLED AND MAY
NOT BE AVAILABLE AT ALL TIMES.
$$



USA.gov is the U.S. government's official web portal to all federal, state and local government web resources and services.